Location: Oshawa
(43.9000°N, 78.8670°W)
Time: 14:06:40
(UTC-04:00)

Cosmos 1707 Rocket - Visible Passes

Search period start: 28 May 2015 00:00
Search period end: 07 June 2015 00:00
Orbit: 607 x 632 km, 82.5° (Epoch: 27 May)

Date Brightness Start Highest point End Pass type
(mag) Time Alt. Az. Time Alt. Az. Time Alt. Az.
28 May 5.1 00:23:00 10° NNE 00:26:39 24° ENE 00:27:12 24° E visible
28 May 4.7 02:00:36 10° NNW 02:04:21 32° W 02:04:21 32° W visible
29 May 4.3 00:40:01 10° N 00:44:17 43° ENE 00:44:30 43° E visible
29 May 5.5 02:18:47 10° NW 02:21:39 18° W 02:21:39 18° W visible
30 May 3.5 00:57:18 10° N 01:01:49 80° E 01:01:49 80° E visible
30 May 5.7 23:38:20 10° NNE 23:40:52 15° ENE 23:41:59 14° E visible
31 May 3.9 01:14:49 10° NNW 01:19:09 55° W 01:19:09 55° W visible
31 May 5.0 23:54:54 10° NNE 23:58:38 26° ENE 23:59:20 25° E visible
01 Jun 4.8 01:32:37 10° NNW 01:36:29 30° W 01:36:29 30° W visible
02 Jun 4.1 00:11:56 10° N 00:16:15 45° ENE 00:16:41 44° E visible
02 Jun 5.6 01:50:51 10° NW 01:53:48 17° W 01:53:50 17° W visible
03 Jun 3.4 00:29:15 10° N 00:33:45 85° E 00:34:02 78° SSE visible
03 Jun 5.6 23:10:10 10° NNE 23:12:51 16° ENE 23:14:15 14° E visible
04 Jun 3.9 00:46:48 10° NNW 00:51:09 52° W 00:51:24 51° WSW visible
04 Jun 4.9 23:26:47 10° NNE 23:30:36 27° ENE 23:31:38 25° E visible
05 Jun 4.9 01:04:37 10° NNW 01:08:29 28° W 01:08:47 28° W visible
05 Jun 4.0 23:43:52 10° N 23:48:13 48° ENE 23:49:01 43° ESE visible
06 Jun 5.7 01:22:55 10° NW 01:25:44 16° W 01:26:11 16° W visible
